Погода в Стекольном

Россия / Магаданская область     60°02′37″N   150°44′06″E
темп.,
°C
ветер,
м/с
пор.,
м/с
влажн.,
%
обл.,
%
осадки,
мм/ч
давл.,
гПа
погр.,
м
12 мая, ср
ср1223:00+2ю119138 0.3 1016121
02:00+1с11897 0.0 101511
05:00+1ссв22775 0.0 101613
08:00+4ссв22595 0.0 1015445
11:00+6с23475 0.0 10151073
14:00+8с33405 0.0 10141535
17:00+8с443818 0.0 10131646
20:00+7ссв334319 0.0 10131015
13 мая, чт
чт1323:00+5ююв116168 0.0 101411
02:00+3ю227589 0.0 101426
05:00+2юв118267 0.0 101421
08:00+3ююв2272100 0.0 1013283
11:00+6ююз3461100 0.0 1011684
14:00+7ююз5643100 0.0 1010902
17:00+4ююз3349100 0.0 1010636
20:00+3ююз3362100 0.0 1010539
14 мая, пт
пт1423:00+1ю2273100 0.0 1010295
02:000ююв2282100 0.0 1010110
05:00−1ююв2289100 0.0 101094
08:00+1ююв227825 0.0 1011350
11:00+3ю226566 0.0 1011684
14:00+6ю225984 0.0 10101089
17:00+6ююз336199 0.0 1010880
20:00+4зюз117599 0.3 1012629
15 мая, сб
сб1523:00+3ююв119098 0.6 1014366
02:00+2юв118775 0.1 1016175
05:00+2ссз117726 0.1 101767
08:00+3з006318 0.0 1017634
11:00+6ююз215355 0.0 10171156
14:00+7ююз325092 0.0 10171412
17:00+7ююз435868 0.0 10171090
20:00+5юз336286 0.0 1018653
16 мая, вс
вс1623:00+2зюз227967 0.0 1019291
02:000зюз118822 0.0 1019137
05:00−1з119328 0.0 101981
08:00+1зюз108134 0.0 1018334
11:00+4ююз226460 0.0 1016893
14:00+7ююз225177 0.0 10141356
17:00+8ююз324797 0.0 10131397
20:00+6ю225566 0.0 1013986